Wind_Speed
26 23 21 22 21 20 20 20 20 20 21 19 15 16 19 20 21 20 19 18 18 19 19 19 19 18 18 17 17 17 18 18 18 17 17 16 16 15 14 13 13 12 13 13 14 15 15 15 15 16 16 16 17 17 17 17 17 16 15 15 15 15 15 15 15 15 15 16 17 17 18 18 18 18 19 19 19 20 20 21 21 21 20 20 19
24 21 20 21 20 21 21 21 20 21 24 22 16 16 19 21 21 20 19 20 20 21 21 20 19 18 18 17 17 18 19 19 19 19 18 17 17 17 15 14 13 12 12 13 12 13 14 15 16 16 17 17 18 18 18 18 17 17 16 16 16 16 15 15 16 16 17 17 18 19 19 20 20 21 21 21 21 22 22 23 22 22 21 21 21
23 20 20 22 21 21 21 21 20 21 25 23 16 16 19 20 20 19 19 19 20 21 21 19 19 19 19 18 18 19 19 19 19 19 18 18 18 18 18 16 16 15 14 14 13 13 14 14 15 16 17 18 18 19 19 19 18 18 17 17 17 17 17 16 17 17 18 19 20 20 21 21 22 22 23 23 24 24 24 24 23 22 22 21 21
26 24 24 25 22 19 18 19 19 20 24 23 18 17 19 19 18 18 18 18 18 20 20 19 19 19 20 20 19 19 17 16 17 17 17 18 18 18 19 18 18 17 17 16 16 16 16 16 17 17 18 19 20 20 20 20 20 19 18 18 19 19 18 18 18 19 20 20 21 22 22 23 24 24 25 26 26 26 26 25 24 24 23 22 22
29 29 26 24 21 18 17 17 18 20 23 23 21 20 21 20 18 19 18 18 19 20 19 19 20 20 20 20 20 18 16 15 14 15 15 16 18 19 19 19 18 18 17 18 18 18 19 19 19 19 20 21 21 22 22 22 22 21 20 20 21 21 20 20 20 21 22 23 23 24 24 25 26 27 28 29 29 29 28 28 27 26 25 25 25
33 31 25 20 19 19 17 16 18 21 23 23 22 22 22 22 21 21 20 20 20 21 21 21 21 21 21 21 20 19 18 16 15 15 15 16 17 18 19 20 19 18 18 18 18 19 20 21 21 21 22 22 23 23 23 23 23 22 22 22 22 22 22 22 22 23 24 25 25 26 26 27 28 29 30 31 31 31 31 31 30 29 29 29 29
34 30 24 21 21 21 20 19 21 23 24 23 22 22 23 23 23 22 21 21 21 22 23 23 23 22 22 22 21 20 19 18 17 17 17 17 18 19 20 21 21 21 20 20 20 21 21 22 22 22 22 23 23 24 24 24 24 23 23 23 23 23 24 24 25 25 26 26 27 28 28 28 29 31 33 34 33 34 34 33 33 33 33 33 33
33 29 25 24 22 21 22 22 23 23 23 23 22 22 22 22 22 21 21 21 22 23 24 24 23 23 23 23 22 22 21 20 19 19 19 20 20 21 21 22 23 23 24 23 23 23 23 23 24 23 23 24 24 24 24 24 24 24 24 23 23 24 25 26 26 27 28 29 30 30 31 31 32 34 36 36 36 36 36 35 35 35 35 35 36
31 27 26 25 23 22 22 22 23 23 22 23 23 21 21 21 21 20 20 21 22 23 23 23 23 23 24 24 24 23 22 22 21 21 21 21 21 21 22 23 24 25 26 26 25 25 25 25 24 24 24 24 24 24 24 25 25 24 24 24 24 25 26 27 28 29 30 31 33 33 34 35 36 37 38 38 38 38 38 37 37 37 37 37 38
30 27 26 25 24 24 22 22 23 24 23 24 24 22 20 21 21 20 20 21 22 22 23 23 23 24 24 24 24 24 24 25 24 22 21 21 21 21 22 24 25 26 27 27 27 27 26 25 24 23 23 23 24 24 25 25 25 25 25 25 26 27 28 29 31 32 32 33 35 36 37 37 38 39 40 40 40 40 40 39 39 39 39 39 40
29 27 27 27 27 26 24 23 23 23 23 24 25 24 22 22 22 21 21 21 21 21 23 23 23 24 24 24 24 25 26 27 26 24 23 23 22 22 23 24 25 27 28 28 27 26 25 24 24 24 24 24 25 25 26 26 26 26 27 28 29 30 31 32 33 33 34 35 36 37 38 39 40 41 42 42 43 43 43 42 42 42 42 42 43
28 27 27 28 28 26 24 22 22 23 22 22 23 24 23 23 23 23 23 22 22 22 23 23 23 24 23 23 25 27 28 29 29 29 29 27 26 25 25 25 26 28 28 27 26 25 25 24 24 25 25 25 26 26 27 27 28 29 30 31 31 32 33 35 35 36 37 38 39 40 41 41 42 43 44 44 45 45 45 45 45 46 46 46 46
25 26 26 26 26 25 24 22 21 22 21 20 22 24 24 24 24 25 25 24 24 24 24 25 25 25 24 24 26 27 29 30 31 31 31 30 29 29 28 27 27 27 27 27 26 26 25 25 25 25 25 26 28 28 28 29 30 31 32 33 34 35 36 37 38 39 40 41 41 42 42 43 44 45 45 46 47 47 47 48 49 49 49 50 49
24 25 26 26 25 25 24 23 22 23 23 22 23 24 25 25 26 27 27 26 26 26 27 28 28 28 27 28 29 31 32 34 34 34 32 30 31 33 31 28 27 27 27 26 26 26 26 26 26 25 25 26 29 30 29 30 31 33 34 35 37 38 39 40 41 42 43 43 44 44 45 45 46 47 47 48 49 49 50 51 51 51 52 52 52
24 25 26 27 27 26 25 23 23 23 24 23 23 24 25 26 26 28 28 29 29 29 29 30 31 32 32 32 33 34 34 35 36 37 35 33 34 36 33 30 28 27 26 26 26 27 27 27 28 28 27 28 30 31 31 30 29 31 34 36 38 40 41 42 43 44 45 46 47 47 47 48 49 49 50 51 52 52 53 53 53 53 53 54 54
25 26 27 28 29 28 28 27 26 26 26 25 25 25 26 27 28 29 31 33 33 32 30 30 30 31 32 32 31 31 30 31 33 35 36 36 36 35 33 31 29 28 27 26 27 28 29 29 30 30 31 32 33 33 34 33 32 32 34 36 38 38 37 39 42 44 46 48 49 50 50 51 52 53 54 55 55 55 56 56 56 56 57 58 58
27 29 31 32 32 31 31 30 29 28 28 27 27 28 28 29 30 31 32 32 31 30 28 26 25 25 26 27 27 27 27 27 28 30 34 35 32 30 30 30 29 27 27 27 28 29 28 29 30 31 32 34 35 35 36 38 38 38 39 40 40 40 39 40 43 45 47 48 50 51 52 53 53 54 55 56 56 57 58 58 59 60 61 62 62
28 32 34 35 35 33 31 29 27 26 26 26 27 28 28 28 30 29 28 26 25 25 25 24 24 24 24 25 26 26 26 25 25 27 29 28 27 27 28 28 27 27 27 27 28 29 30 30 32 33 34 35 36 36 37 39 41 42 42 42 42 42 43 45 47 49 50 51 51 52 53 53 54 54 55 56 57 59 60 60 61 63 64 64 65
21 24 26 27 28 29 27 25 24 25 25 26 27 26 26 26 27 27 26 25 24 24 24 24 24 24 25 26 26 26 25 24 25 26 27 26 25 26 27 27 27 28 29 29 30 31 33 34 35 37 38 39 40 40 41 42 44 45 46 46 46 47 48 49 50 52 53 53 53 53 54 54 54 55 56 57 59 60 62 62 63 65 66 66 67
16 17 19 20 21 23 23 23 24 25 25 26 26 26 27 28 28 27 26 25 25 24 24 24 24 24 25 25 26 26 25 25 25 26 27 26 26 27 27 28 29 30 31 31 33 34 36 37 38 39 41 43 44 44 44 44 44 45 47 48 49 50 51 52 54 56 56 56 57 57 57 57 57 58 59 60 61 62 63 64 66 67 68 68 68
20 20 20 21 22 23 23 24 25 26 26 26 26 27 28 29 29 28 26 25 25 25 25 25 25 26 26 26 26 26 27 27 27 27 27 28 28 28 29 29 30 32 34 35 36 37 38 38 39 41 43 44 45 45 45 46 47 48 49 50 51 53 55 57 58 60 61 61 62 62 63 63 63 63 63 63 64 65 66 67 68 68 68 69 69
27 25 24 24 24 24 25 25 26 27 27 28 27 27 27 27 27 27 26 25 26 26 26 26 26 27 27 27 27 28 28 28 28 28 29 29 29 30 31 31 33 36 38 39 40 41 42 42 42 43 43 44 45 46 49 50 52 53 54 55 57 58 60 61 62 63 63 64 65 67 67 67 67 67 66 65 65 66 67 68 69 69 70 70 70
28 28 27 26 26 26 26 27 28 29 29 29 29 28 27 27 27 27 27 28 28 28 28 28 29 29 29 29 30 30 30 31 31 31 32 32 33 34 36 37 39 41 42 43 45 46 46 46 47 48 49 50 50 52 53 55 56 58 60 61 62 63 63 64 64 64 65 65 66 67 67 67 67 67 67 68 67 66 68 71 71 71 72 71 71
26 27 27 27 28 28 29 30 30 31 31 31 31 30 30 30 30 30 30 31 32 32 32 32 33 33 33 33 33 33 34 35 36 36 36 36 37 39 41 42 44 45 45 46 47 49 50 50 51 52 54 56 57 58 59 61 62 63 64 65 66 65 65 65 65 66 67 67 68 69 69 68 69 69 70 72 70 69 71 73 73 73 73 72 71
26 26 26 27 28 29 30 31 32 32 32 32 33 33 33 33 33 33 33 34 34 35 35 35 35 35 35 36 36 36 37 38 39 39 40 41 42 43 44 46 47 48 49 49 50 51 53 54 55 55 57 58 60 61 62 63 64 64 65 66 67 67 67 68 68 69 70 71 71 71 71 72 72 73 73 74 73 73 74 75 75 74 74 73 72
27 28 28 28 28 29 30 31 32 33 33 34 34 34 35 35 35 35 35 36 36 36 37 37 37 38 38 39 39 40 41 41 42 43 44 45 45 46 47 48 49 51 52 52 53 54 55 56 57 58 59 60 61 62 63 63 64 65 66 67 68 68 69 70 71 71 72 73 73 74 74 75 75 75 75 75 75 76 76 76 76 76 76 74 73
28 28 29 30 30 30 31 31 32 33 34 34 34 35 36 37 37 37 38 38 38 38 39 39 40 41 41 42 42 43 43 44 46 47 48 48 48 49 50 51 52 52 52 52 53 54 55 57 57 58 59 59 60 61 62 63 64 65 66 68 69 70 71 71 73 74 74 75 76 76 77 77 77 77 76 76 77 77 76 75 74 74 72 71 69
28 28 28 30 31 31 33 34 35 35 35 35 35 36 36 37 38 38 38 38 39 40 41 42 43 43 44 44 44 45 46 47 49 50 50 50 50 50 50 50 50 50 51 51 52 53 54 56 57 58 59 60 61 62 63 65 66 68 69 71 72 73 74 74 75 76 77 78 78 79 79 78 77 76 74 73 73 72 70 69 67 66 65 63 61
29 29 29 30 30 31 31 32 33 34 34 35 35 35 35 35 36 37 38 39 40 41 42 43 44 45 45 46 47 48 48 49 49 49 49 49 49 49 49 50 50 51 52 53 54 55 56 57 58 60 61 62 63 64 66 68 69 71 72 74 75 76 77 77 77 77 77 76 75 74 74 72 71 69 67 66 66 64 62 61 60 58 56 55 53
32 32 31 31 31 31 31 31 31 32 33 34 34 35 35 36 37 39 40 41 42 43 44 45 46 46 47 47 47 48 48 48 48 49 49 49 50 51 51 52 53 54 54 55 56 57 58 59 60 62 63 64 66 67 69 70 72 73 74 75 76 76 76 75 73 72 71 69 68 67 65 64 63 61 60 59 59 58 56 55 54 53 51 49 47
35 35 35 35 35 34 33 33 32 33 33 34 34 35 36 37 38 39 40 41 42 42 43 44 44 45 45 46 46 47 48 48 49 50 50 51 52 52 53 54 55 56 56 57 58 59 61 62 64 65 66 67 68 69 70 71 71 71 71 70 70 69 69 68 66 64 63 62 61 60 59 58 57 55 54 55 55 54 53 53 52 50 48 45 42
39 38 38 38 37 37 35 34 33 33 33 33 33 34 35 36 37 38 39 40 41 41 42 43 44 44 45 46 47 48 49 49 50 51 51 52 53 54 55 56 57 58 59 60 61 63 64 65 66 67 68 68 68 67 67 67 66 65 64 63 63 62 62 61 59 57 57 57 56 55 55 54 54 54 54 54 54 54 53 52 51 49 46 41 37
41 41 40 39 39 38 36 35 34 33 33 33 34 34 35 36 37 38 39 40 41 42 42 43 44 45 45 46 47 48 48 49 50 51 52 53 54 55 56 57 58 59 60 61 62 63 63 63 64 64 63 63 62 61 61 60 60 59 58 58 57 57 56 55 54 53 54 54 54 54 54 55 55 55 56 56 55 55 53 50 48 46 41 37 36
43 42 41 40 39 38 37 36 36 36 36 36 36 37 37 38 39 40 41 42 42 43 44 44 45 45 46 47 47 48 49 50 50 51 52 53 54 55 56 57 57 58 58 59 59 59 58 58 57 57 57 56 56 55 54 54 53 53 52 52 52 52 52 52 52 52 53 53 54 55 55 56 57 57 57 56 54 51 47 43 40 38 34 33 35
44 43 42 41 40 40 40 39 39 39 39 39 39 40 40 41 41 42 42 43 44 44 45 45 46 46 47 47 48 48 49 49 50 51 51 52 53 53 54 54 54 54 54 54 53 53 52 52 51 51 51 50 50 49 48 48 48 48 49 50 50 51 52 52 52 53 53 54 55 55 55 56 57 56 53 50 46 41 36 33 31 31 31 34 37
41 41 41 41 41 42 42 42 42 42 42 43 43 43 43 43 43 44 44 44 45 45 45 46 46 46 47 47 47 48 48 48 49 49 50 50 51 51 51 51 50 50 49 48 48 48 47 47 46 46 46 45 45 46 46 47 48 49 50 51 51 52 52 52 53 53 53 53 53 54 55 54 51 46 40 36 33 31 29 29 30 32 35 37 38
41 41 42 42 43 44 44 44 45 45 45 45 45 45 45 45 45 45 45 45 45 45 45 45 45 45 45 46 46 46 46 47 47 48 48 48 48 47 47 47 46 46 45 45 44 44 43 43 43 43 43 44 45 46 46 47 48 49 50 50 51 51 51 50 50 51 51 51 52 51 46 39 33 28 24 22 23 23 24 26 29 31 34 35 34
43 43 43 44 44 44 45 45 45 46 46 45 45 45 45 45 45 45 45 45 44 44 44 44 44 44 44 44 44 44 45 45 45 45 44 44 43 43 43 42 42 41 41 40 40 40 40 41 42 42 44 44 45 46 47 47 48 49 49 48 48 47 47 47 48 49 48 46 43 37 28 21 19 18 18 19 21 23 24 26 29 30 31 30 29
44 43 43 43 43 43 43 44 44 44 44 43 43 43 43 43 43 43 43 43 42 42 42 42 42 42 42 42 42 41 41 40 40 40 39 39 39 38 38 37 37 37 37 38 38 39 40 41 42 43 44 45 45 47 47 48 48 47 46 45 44 44 44 44 44 41 35 30 25 22 18 17 19 21 19 21 24 26 26 26 27 28 29 29 28
42 42 42 42 41 41 41 41 41 41 41 41 41 41 41 41 41 41 40 40 40 40 40 40 40 39 39 38 38 38 37 36 36 36 35 35 34 34 34 34 34 35 36 37 39 40 41 42 43 44 45 46 47 48 48 46 45 43 41 42 41 40 40 37 33 26 21 18 18 18 17 17 19 20 21 23 25 25 24 23 23 25 26 27 27
40 39 39 39 38 38 38 38 38 38 38 38 39 39 39 39 38 38 38 38 38 38 37 37 37 36 36 35 35 34 34 33 33 32 32 32 32 32 32 33 34 35 37 38 40 41 42 43 44 45 47 48 48 46 44 41 39 38 39 39 36 33 31 27 21 17 16 17 17 17 17 17 17 17 18 20 20 20 20 21 22 23 24 24 24
37 37 37 36 36 36 36 36 37 37 37 37 37 37 37 37 36 36 36 36 35 35 34 34 34 33 33 32 32 31 31 30 30 30 30 30 31 31 32 33 35 36 38 40 41 42 43 45 46 47 46 45 43 40 37 35 35 35 36 34 30 26 22 19 17 16 16 16 17 16 17 17 17 17 18 19 18 18 19 20 19 19 20 21 22
35 35 35 35 35 35 35 35 35 35 36 36 36 35 35 35 35 34 34 33 33 32 31 31 30 30 30 29 29 29 28 28 29 29 29 30 31 32 33 34 36 37 39 40 42 43 44 45 44 43 40 38 35 33 31 31 32 32 30 27 23 22 20 19 19 18 17 17 18 18 18 18 19 19 20 20 20 20 21 20 19 19 20 21 22
34 35 35 34 34 34 34 34 34 34 34 34 34 34 33 33 32 32 31 30 30 29 28 28 27 27 27 27 27 27 27 28 28 29 30 30 31 32 34 35 37 38 39 41 42 43 43 40 38 36 34 32 30 27 27 28 29 28 26 22 20 20 20 20 20 20 18 18 18 17 17 17 17 17 18 19 19 20 20 20 20 21 22 22 22
33 33 33 33 33 33 33 33 33 33 33 33 32 32 31 31 30 29 28 28 27 26 26 25 25 25 26 26 26 26 27 27 28 29 30 31 32 33 34 35 37 38 39 40 40 39 36 33 32 31 30 27 25 24 24 26 25 23 21 20 19 19 18 17 17 17 17 16 15 14 14 14 15 16 17 18 18 19 20 21 21 21 21 20 20
31 32 32 32 32 32 32 32 32 32 32 31 31 30 29 29 28 27 26 25 25 24 24 24 24 24 25 25 25 26 26 27 28 29 29 31 32 33 34 35 36 37 38 38 36 33 30 29 28 27 25 22 21 22 23 23 21 19 18 18 18 17 16 15 14 14 13 12 11 11 11 12 14 15 16 16 16 16 18 19 20 20 20 19 18
29 30 31 31 31 31 31 31 31 31 30 30 29 28 28 27 26 25 24 24 23 23 23 23 23 24 24 24 25 25 26 26 27 28 29 30 32 32 33 34 35 36 36 34 30 28 27 26 25 23 21 20 20 21 22 21 18 16 15 15 15 15 15 15 14 14 13 13 12 12 12 12 13 14 16 17 16 16 15 15 16 17 17 16 16
28 28 29 29 29 29 29 29 29 29 28 28 27 26 26 25 24 23 23 22 22 22 23 23 23 23 23 23 24 25 25 26 27 27 28 29 30 31 31 33 35 35 33 29 27 25 24 23 22 20 19 18 19 20 21 20 17 15 14 13 13 13 13 13 13 13 13 13 13 13 13 13 14 15 16 17 16 16 14 13 12 12 12 13 14
27 27 27 27 27 28 27 27 27 27 27 26 26 25 24 24 23 22 21 21 22 22 22 22 22 22 22 23 23 24 24 25 25 26 27 28 29 29 31 33 34 32 29 26 24 23 21 20 19 18 17 17 18 19 19 18 16 15 14 14 13 13 13 13 13 13 14 13 13 13 13 14 14 15 14 14 14 14 15 15 15 14 13 12 12
26 26 26 26 27 26 26 26 26 26 26 25 24 24 23 22 22 21 21 21 22 22 22 22 22 22 22 22 23 23 23 24 24 25 27 28 28 29 31 32 31 29 26 24 23 21 20 19 18 17 17 16 17 18 18 17 15 15 15 15 15 15 15 14 14 15 15 15 16 16 15 14 14 13 13 13 14 15 16 17 17 17 16 15 14
26 26 26 26 26 26 26 26 26 25 25 24 23 23 22 22 21 22 22 22 22 22 22 22 22 21 22 22 22 22 22 23 24 25 26 26 27 28 30 30 28 25 23 22 21 20 19 18 17 16 16 16 16 16 16 16 15 15 15 15 15 15 15 15 15 15 15 16 16 16 16 16 15 15 15 15 16 16 16 16 16 16 16 16 15
Wind_Direction
279 280 264 251 247 246 248 249 249 241 227 226 232 227 224 226 227 229 231 233 235 236 238 240 240 240 239 238 241 243 244 248 252 253 252 250 249 248 247 249 251 253 253 249 246 244 242 238 237 237 240 243 246 249 251 253 256 258 261 264 267 269 271 273 277 281 284 286 288 287 287 286 284 283 283 282 282 283 285 286 288 288 287 285 285
275 273 254 243 243 246 249 248 246 239 228 224 227 227 225 227 228 228 228 228 231 234 237 237 234 232 232 237 244 245 247 250 251 251 250 248 247 245 244 245 248 251 254 253 249 245 242 239 238 240 242 244 247 250 250 252 255 257 260 263 265 267 269 270 274 278 281 283 284 284 284 283 282 281 280 280 281 282 285 287 287 287 285 284 283
265 262 246 240 244 248 250 248 245 238 228 226 233 236 230 227 228 227 226 227 229 231 233 231 230 231 234 240 246 248 249 251 251 250 247 245 245 244 244 245 246 249 252 254 253 250 247 244 243 244 245 246 248 250 253 255 257 259 260 263 264 264 265 267 270 275 277 278 279 279 280 279 279 278 278 278 279 281 283 285 284 282 280 280 282
260 259 247 243 248 254 257 254 246 237 231 233 244 245 232 225 225 225 223 226 229 228 226 227 231 234 238 242 243 244 245 248 249 248 245 243 244 245 245 245 246 247 249 251 252 251 250 249 247 247 248 248 248 250 253 255 257 258 259 260 262 262 262 263 266 269 273 274 275 276 276 276 276 276 277 279 281 282 283 283 281 278 275 274 278
259 260 251 247 251 255 258 255 243 235 233 238 246 243 230 223 225 225 221 224 229 226 223 228 234 235 237 239 239 238 241 245 249 251 250 246 244 244 244 243 244 245 247 250 252 252 252 252 251 250 250 251 251 252 252 253 255 257 258 259 261 261 262 264 266 268 269 270 271 271 272 273 274 276 278 281 283 284 284 283 280 277 273 272 276
256 260 255 248 244 243 246 244 237 235 234 238 245 243 231 225 226 225 221 224 227 224 222 227 231 233 234 236 236 237 241 247 252 257 258 256 251 247 245 244 245 248 251 253 254 254 254 254 253 253 253 254 255 256 256 256 256 257 259 260 262 263 264 265 267 268 268 269 270 270 271 273 275 278 280 283 284 284 283 283 281 278 274 273 275
254 256 250 243 237 236 240 242 241 240 238 239 243 241 235 232 228 225 224 227 229 229 229 230 232 233 234 234 235 238 244 250 255 259 262 262 259 255 252 251 252 254 257 258 258 258 256 254 254 254 255 256 258 258 258 258 257 257 258 260 261 264 265 265 267 268 270 271 272 272 273 274 276 279 280 282 283 283 283 283 282 281 278 276 277
253 250 244 243 240 237 238 241 244 243 241 240 239 235 235 237 234 230 230 233 235 236 237 237 236 234 235 237 239 242 247 253 258 262 263 261 258 256 255 256 256 256 257 257 257 257 255 254 253 254 255 256 257 258 258 258 258 258 258 260 261 263 265 266 268 269 270 271 271 273 274 275 276 277 279 281 282 283 284 284 284 283 281 280 281
248 244 244 245 241 238 240 243 244 242 239 237 234 230 231 234 234 234 234 235 238 239 240 240 239 237 238 240 243 246 250 254 258 261 262 260 257 255 254 255 255 255 254 254 255 255 255 255 254 255 256 257 258 258 258 259 259 259 259 260 262 263 265 266 267 268 269 269 269 270 272 274 276 277 279 281 282 283 283 283 283 283 283 283 283
245 242 242 241 239 240 242 243 242 240 236 231 227 227 229 229 229 231 233 235 238 240 241 242 243 242 242 243 246 249 251 252 255 258 261 260 257 256 255 254 253 252 252 251 253 254 256 257 258 257 257 257 257 257 258 259 261 261 262 263 264 265 266 266 266 267 267 268 269 271 273 276 278 279 281 282 283 283 284 284 283 282 282 282 283
244 241 237 235 237 241 243 241 238 237 235 230 226 228 231 230 229 230 233 237 239 241 244 246 248 248 248 249 250 251 250 251 253 256 260 262 262 262 261 257 254 252 250 250 251 253 255 257 257 256 256 257 258 259 261 263 265 266 267 267 268 268 268 269 268 268 269 270 271 273 275 277 280 281 283 284 285 285 285 284 284 283 282 281 282
241 237 234 234 236 240 243 242 235 233 235 235 233 235 238 237 236 237 240 244 244 245 247 250 252 253 253 254 256 257 256 255 255 257 260 263 264 264 264 262 257 253 251 250 251 252 253 254 255 256 257 259 260 261 263 266 268 270 271 271 271 271 271 271 271 271 272 273 273 274 275 277 279 280 282 283 284 284 284 283 283 282 282 281 282
236 233 234 236 237 240 245 243 235 233 236 236 236 240 243 244 244 245 247 250 250 249 250 252 253 253 253 255 259 262 262 261 259 259 259 261 263 264 262 259 255 251 250 250 250 251 253 255 257 261 264 266 266 266 268 271 273 274 274 274 275 275 274 274 274 274 274 275 275 275 276 277 278 279 279 280 281 281 281 280 280 280 281 282 284
236 237 238 239 238 240 244 241 235 234 237 235 236 242 246 247 249 250 251 254 254 252 252 254 254 254 254 257 260 261 261 261 261 260 259 260 263 264 260 253 250 249 248 250 252 254 257 258 260 262 264 267 270 271 272 274 276 277 277 278 278 277 277 276 276 276 276 276 275 275 275 276 277 278 278 278 278 278 278 278 279 280 281 283 284
239 240 240 240 240 240 241 237 234 236 239 239 240 245 249 250 253 256 257 259 259 257 255 257 259 261 263 263 262 260 259 258 257 257 257 257 261 263 258 248 245 246 249 253 257 258 259 260 261 262 261 262 265 268 270 273 275 276 276 277 277 278 277 276 274 275 275 275 274 274 274 274 275 276 276 276 276 276 277 277 279 280 281 282 282
240 240 239 240 241 240 237 233 233 234 237 238 240 242 246 251 254 257 259 260 261 259 259 260 260 260 260 258 257 258 259 257 253 251 253 256 258 259 253 246 244 247 251 256 259 260 260 261 262 263 263 262 263 264 266 267 267 267 269 272 273 275 276 275 274 274 274 273 273 273 274 274 275 275 276 277 277 277 277 278 279 280 281 281 283
237 238 236 236 237 237 236 234 234 234 235 238 239 240 244 248 252 255 259 260 259 259 261 262 258 252 250 250 252 256 261 262 256 252 253 255 254 251 247 244 246 251 256 259 261 262 263 262 262 262 262 263 264 264 265 266 266 266 267 268 269 270 270 271 274 276 275 274 273 273 274 274 275 277 278 278 279 279 279 279 280 281 282 282 284
236 235 233 235 236 235 234 233 233 235 236 237 240 243 245 248 251 255 260 262 260 259 260 260 255 250 248 249 253 257 261 262 258 254 252 251 246 243 243 245 249 255 259 261 263 265 265 264 264 264 264 264 265 265 266 267 268 268 268 267 266 266 267 269 273 275 275 275 275 275 275 276 277 278 279 279 280 280 280 280 281 281 282 283 285
234 230 229 233 235 233 230 231 234 238 240 240 242 245 247 248 252 255 257 259 260 260 259 258 255 252 252 253 255 257 259 258 254 251 249 246 244 243 245 249 253 257 261 264 267 269 270 269 269 270 270 270 270 269 269 268 269 269 270 269 268 268 269 271 273 274 275 276 277 276 276 277 278 278 278 279 279 280 280 281 281 281 283 284 286
232 226 224 228 232 231 232 234 236 239 242 241 241 243 245 248 251 253 255 257 259 259 258 256 254 252 252 254 255 256 256 255 252 249 249 249 248 249 252 256 259 262 265 268 270 271 271 273 274 275 275 274 274 273 272 271 270 270 270 271 271 272 274 275 276 276 276 277 277 277 278 279 279 279 279 279 280 280 281 281 282 283 286 287 288
237 236 235 236 237 236 236 237 239 240 242 242 242 243 246 248 250 252 254 255 256 257 256 254 253 252 252 254 258 259 258 256 254 252 252 253 253 255 259 262 265 267 268 270 270 271 271 273 274 275 275 275 274 273 272 272 271 270 271 272 274 275 277 278 279 279 279 279 279 279 280 280 280 280 280 280 280 281 282 282 283 284 286 286 286
241 243 244 244 244 242 242 242 244 245 247 247 248 248 249 250 251 252 253 254 254 255 254 253 252 252 254 258 262 262 259 255 255 256 258 259 260 263 264 264 265 266 269 270 272 272 272 273 272 272 273 272 271 270 270 270 270 271 273 275 276 277 278 279 280 280 280 281 281 281 281 281 281 281 281 281 281 281 281 280 280 280 281 282 283
243 244 246 246 245 245 245 245 246 248 250 251 251 251 250 250 250 250 251 252 253 253 253 253 253 254 256 258 260 259 256 254 255 257 260 262 264 267 268 268 267 268 270 271 272 272 272 272 272 271 271 271 271 271 271 271 272 273 275 277 278 279 279 280 280 280 280 280 279 280 280 280 280 279 279 278 278 278 277 277 277 279 281 284 286
243 243 243 244 245 245 245 245 246 247 249 250 250 251 251 251 251 251 252 253 254 255 255 256 256 256 257 257 257 256 254 254 256 258 260 263 266 268 270 271 272 272 272 272 272 272 272 272 271 270 270 271 272 272 273 274 275 276 277 278 279 279 280 279 279 279 279 279 279 279 279 279 278 278 277 277 276 276 277 278 280 283 285 287 288
248 246 245 243 244 245 245 245 245 246 248 249 249 250 251 252 253 253 254 254 255 256 256 256 257 257 257 257 256 255 255 256 258 261 263 266 269 271 273 274 274 274 274 274 274 274 273 273 272 271 271 272 273 274 275 276 277 277 278 279 279 280 280 280 280 280 281 281 282 282 282 281 281 281 281 282 282 281 281 282 284 286 287 289 290
250 251 252 250 248 247 247 247 247 247 248 249 250 252 253 254 254 254 255 255 255 255 256 256 257 258 258 259 258 258 258 259 262 266 269 271 273 275 275 275 276 276 276 275 275 274 274 274 274 274 274 274 275 276 277 278 278 279 280 280 280 281 281 281 281 282 282 282 282 282 282 282 282 283 284 285 285 285 285 286 287 288 288 289 289
254 253 253 253 252 250 250 249 249 248 249 250 252 254 256 255 255 254 255 255 256 257 258 258 259 259 260 260 260 261 262 264 267 270 272 274 276 276 276 276 277 277 276 276 276 276 276 276 276 276 276 277 277 278 278 279 280 280 280 280 281 281 281 281 281 281 281 281 281 282 282 282 283 284 284 285 285 286 286 287 287 288 288 288 288
255 254 252 252 252 252 252 252 252 252 253 253 255 256 258 258 257 256 257 257 258 259 260 260 261 261 262 262 263 264 266 268 269 271 272 273 273 274 274 274 275 275 275 276 276 276 276 276 277 277 278 278 279 279 279 279 279 279 279 279 279 279 278 278 279 280 281 282 282 283 283 284 284 285 285 285 286 286 287 287 287 287 287 287 288
238 244 246 247 249 250 250 251 252 252 252 253 255 257 259 260 260 260 260 260 260 261 262 263 264 265 265 266 267 269 270 270 270 271 272 272 273 273 273 273 274 274 274 274 275 275 275 276 276 277 277 278 278 278 278 278 278 278 278 278 278 278 278 279 280 281 283 283 284 284 285 285 285 286 286 286 286 287 287 287 287 287 288 288 289
237 243 247 250 252 253 254 254 254 254 254 255 256 257 258 258 259 259 259 260 260 261 262 263 265 266 267 268 269 270 270 270 270 271 272 272 272 273 274 274 275 275 276 276 276 276 276 276 277 277 277 277 277 277 277 277 278 278 278 278 279 280 280 280 281 282 283 283 284 285 285 286 286 287 287 287 287 287 287 286 287 287 288 289 290
249 253 257 259 261 262 262 262 261 260 259 258 258 257 257 257 257 258 259 260 260 261 262 263 264 265 266 267 268 269 269 270 271 271 272 273 273 274 274 275 275 276 276 277 277 277 277 277 278 277 277 277 278 278 278 278 278 279 280 280 281 281 282 282 283 284 284 285 285 286 287 287 288 287 287 286 286 285 285 285 285 285 285 288 290
255 258 261 263 264 265 266 265 263 261 259 258 257 256 256 256 257 257 258 259 260 261 262 263 263 264 265 266 267 268 268 269 270 270 271 271 272 273 274 274 275 276 276 277 277 277 277 278 278 278 278 279 279 280 280 281 281 282 283 283 284 285 286 286 287 287 288 288 289 289 289 289 289 288 287 286 285 285 284 284 283 282 283 285 284
258 259 261 262 263 264 264 264 264 263 262 261 261 260 260 260 260 261 261 262 262 263 264 265 266 266 267 268 268 269 270 271 271 272 272 273 273 274 275 275 276 276 277 277 277 278 278 279 279 280 280 281 282 282 283 284 285 285 286 287 288 288 289 290 291 290 290 291 291 290 290 289 289 288 287 287 286 286 285 283 281 280 280 278 274
261 261 262 262 262 263 263 263 264 264 264 265 266 266 267 268 268 269 269 269 270 270 271 271 271 272 272 272 272 273 274 274 275 275 276 276 277 277 277 278 278 279 279 279 280 280 281 282 282 283 283 284 285 285 286 288 289 289 290 291 291 292 292 292 292 291 291 290 290 289 289 288 288 287 288 287 287 286 284 281 278 276 273 269 267
261 262 263 263 264 265 265 266 267 268 268 269 270 271 271 271 272 272 272 272 273 273 274 274 274 274 275 275 276 276 276 277 277 278 278 279 279 279 279 280 280 281 281 281 282 283 283 284 284 285 286 287 288 289 290 291 292 292 293 293 292 292 292 292 291 290 290 289 289 289 289 288 288 289 289 288 287 285 280 272 267 266 264 262 260
259 261 262 264 265 267 268 269 270 270 271 271 272 272 272 271 271 271 271 271 271 272 272 273 274 274 275 275 276 277 278 279 279 279 280 280 280 281 281 281 281 282 282 283 284 285 285 286 287 289 290 291 292 292 293 293 294 294 293 293 293 292 292 291 291 290 290 290 289 289 289 289 289 289 288 286 282 276 267 257 252 254 257 257 256
260 261 262 263 264 265 266 267 268 269 269 270 271 271 271 271 271 271 271 271 272 272 272 272 273 275 275 276 277 278 278 279 279 279 279 280 280 280 280 281 282 282 283 284 286 287 288 289 290 291 292 293 294 294 294 295 295 295 294 294 294 294 294 294 293 292 291 290 289 289 289 289 288 285 281 278 273 266 259 255 253 253 254 256 259
261 261 262 263 263 264 265 266 267 268 269 269 270 270 270 270 271 271 271 272 272 273 273 274 275 276 277 277 277 278 278 278 278 278 278 279 280 280 281 282 284 285 285 287 288 289 290 291 292 293 295 295 296 296 297 297 297 297 297 297 297 298 297 295 294 292 291 290 289 286 282 276 276 276 270 263 261 259 257 256 257 258 260 264 267
261 262 263 264 265 266 267 267 267 267 268 268 268 268 268 269 269 270 271 272 273 273 274 275 275 276 276 276 276 276 277 277 277 278 279 280 281 283 284 285 286 287 288 288 289 290 291 293 295 296 297 297 298 298 299 299 298 298 299 300 300 299 297 296 295 294 293 291 287 280 270 265 270 272 263 254 254 257 256 256 258 262 267 269 269
265 266 266 266 267 267 267 267 266 266 266 267 267 267 267 268 269 269 270 271 272 272 273 273 274 274 274 274 274 275 276 276 277 279 280 282 283 285 286 287 288 289 289 290 291 293 295 296 297 298 298 299 299 299 299 298 298 299 300 301 300 299 298 297 297 295 291 285 280 277 275 274 272 267 261 258 258 257 256 259 264 267 267 266 265
267 267 267 267 266 265 265 264 264 264 265 265 265 266 266 267 267 268 268 269 269 270 270 271 271 271 272 272 273 274 276 277 279 281 282 284 285 287 287 288 289 290 291 292 294 296 297 298 298 299 299 299 299 298 297 297 298 299 300 300 300 299 299 298 295 289 284 281 278 276 277 277 273 267 264 265 265 262 263 268 271 267 263 261 261
263 263 262 262 261 261 261 261 261 261 262 262 263 263 264 264 265 265 266 266 266 267 268 269 269 270 271 273 275 276 278 280 282 283 285 286 287 288 288 289 290 291 293 295 296 297 298 299 300 300 300 299 297 296 296 296 297 299 300 300 300 299 297 294 290 286 283 281 281 280 278 277 277 276 275 274 273 272 273 274 273 270 267 266 265
257 257 257 257 257 257 257 258 258 259 259 260 260 261 261 262 263 263 263 264 265 266 267 268 269 271 273 274 276 278 280 282 283 285 286 286 287 288 289 290 291 293 295 297 298 299 300 301 301 300 299 298 297 296 295 295 296 298 298 296 295 295 291 287 287 287 283 280 282 282 281 280 282 284 284 282 279 276 275 274 274 275 276 274 272
253 254 255 255 255 256 256 257 257 257 258 258 259 259 260 260 261 261 262 263 265 266 267 269 270 272 274 276 278 279 281 282 283 285 285 286 287 288 290 292 294 297 298 300 301 301 302 302 301 300 300 299 298 297 295 295 296 297 294 289 289 292 291 287 287 288 288 286 284 284 285 289 292 293 293 289 283 277 273 273 275 277 277 275 272
252 253 253 254 255 255 255 255 255 256 256 257 257 258 259 259 260 261 263 264 265 266 267 268 270 272 274 275 277 279 281 282 283 285 286 288 289 291 293 296 299 300 302 303 303 303 302 302 302 301 301 301 299 297 297 297 296 295 293 290 290 292 293 290 287 289 292 291 287 285 289 296 299 299 297 294 288 279 273 270 270 271 269 265 262
249 250 251 251 252 253 253 253 254 254 255 256 257 257 258 259 260 261 262 262 263 264 266 267 269 271 273 275 277 279 281 283 285 287 288 290 292 295 298 300 302 303 305 306 305 304 304 304 304 303 302 301 299 299 300 301 297 293 292 294 293 292 291 289 288 291 294 294 290 288 290 296 299 296 291 288 288 285 277 269 265 263 260 257 256
248 248 248 249 249 250 250 251 252 253 254 254 256 256 257 258 258 259 259 259 260 262 263 266 268 270 273 275 278 281 283 285 287 289 291 293 296 299 301 303 305 307 308 308 306 306 306 306 304 303 301 300 300 303 305 304 296 288 287 291 292 291 290 287 285 285 287 288 288 288 289 292 295 291 283 280 283 287 284 274 267 265 263 262 260
250 249 249 249 248 249 249 250 250 252 253 254 255 255 256 256 255 255 255 255 257 260 262 264 267 269 273 276 279 282 285 286 288 291 294 297 300 303 305 307 310 311 310 308 307 308 308 306 303 301 299 299 301 306 308 303 292 281 278 281 283 286 288 287 284 280 278 277 278 281 284 287 289 287 282 279 280 285 287 285 280 274 270 269 267
252 251 251 251 250 250 250 251 251 252 253 254 255 255 254 253 252 251 250 252 255 258 260 263 265 269 273 277 280 283 286 288 291 295 298 301 304 306 309 311 312 311 309 308 309 309 308 306 301 297 296 297 300 305 309 304 289 277 272 272 273 277 281 283 283 280 276 276 278 282 286 289 290 289 287 285 286 288 290 291 291 287 282 276 271
255 254 254 253 252 252 251 251 252 253 254 254 254 254 252 250 249 248 248 250 253 255 258 260 264 268 273 277 281 284 288 292 296 300 302 304 307 310 312 313 312 310 308 309 310 311 310 308 303 297 296 297 299 304 309 307 294 280 274 273 274 276 278 280 282 282 280 280 281 282 285 288 291 293 293 293 293 292 291 291 290 289 287 282 275
256 256 255 254 253 252 251 251 251 252 253 253 252 251 250 248 246 246 246 248 250 252 255 258 262 267 272 277 282 286 291 296 301 303 305 307 310 313 314 314 312 310 308 310 311 312 312 311 306 300 297 297 298 302 307 308 300 290 283 279 278 279 280 281 283 284 284 283 282 282 283 285 288 290 291 290 290 289 288 285 283 280 279 276 273
Height
5754 5754 5754 5754 5755 5756 5756 5756 5757 5758 5759 5761 5763 5763 5765 5766 5767 5769 5770 5772 5773 5773 5774 5775 5776 5777 5778 5779 5780 5781 5782 5783 5783 5784 5784 5785 5786 5787 5787 5788 5789 5789 5789 5790 5790 5790 5791 5791 5791 5791 5791 5791 5792 5792 5793 5793 5793 5793 5794 5793 5793 5794 5794 5794 5793 5793 5793 5793 5793 5793 5793 5793 5793 5793 5793 5793 5793 5793 5792 5792 5791 5791 5790 5790 5789
5751 5752 5751 5751 5752 5752 5753 5753 5754 5755 5757 5758 5760 5761 5762 5763 5765 5766 5768 5769 5770 5771 5772 5773 5774 5775 5776 5777 5778 5779 5780 5781 5781 5782 5783 5783 5784 5785 5786 5786 5787 5787 5788 5788 5789 5789 5789 5789 5789 5789 5790 5790 5790 5790 5791 5791 5791 5791 5791 5791 5791 5791 5792 5792 5792 5791 5791 5791 5791 5791 5791 5791 5791 5791 5791 5791 5791 5791 5790 5790 5789 5789 5788 5787 5787
5748 5748 5748 5748 5749 5749 5750 5750 5752 5753 5755 5756 5758 5759 5760 5761 5763 5764 5765 5767 5768 5769 5769 5770 5771 5773 5774 5775 5776 5776 5777 5778 5779 5780 5781 5781 5782 5783 5784 5784 5785 5785 5786 5786 5787 5787 5787 5787 5787 5788 5788 5788 5788 5788 5789 5789 5789 5789 5789 5789 5789 5789 5789 5790 5790 5789 5789 5789 5789 5789 5789 5789 5788 5788 5788 5788 5788 5788 5788 5787 5787 5786 5786 5785 5784
5744 5745 5745 5746 5747 5747 5748 5749 5750 5752 5753 5754 5756 5757 5758 5759 5761 5762 5763 5764 5765 5766 5767 5768 5769 5770 5771 5772 5773 5774 5775 5776 5777 5778 5779 5780 5780 5781 5782 5782 5782 5783 5783 5784 5784 5784 5785 5785 5785 5786 5786 5786 5786 5786 5786 5787 5786 5786 5787 5787 5787 5786 5787 5787 5787 5787 5787 5787 5786 5786 5786 5786 5786 5786 5785 5785 5785 5785 5785 5784 5784 5784 5784 5783 5782
5739 5740 5743 5745 5746 5746 5746 5747 5748 5749 5751 5753 5754 5756 5757 5758 5759 5760 5761 5762 5763 5764 5764 5766 5767 5768 5769 5770 5771 5772 5773 5774 5775 5776 5777 5778 5778 5779 5779 5780 5780 5780 5781 5781 5781 5782 5782 5783 5783 5783 5783 5783 5784 5784 5784 5784 5784 5784 5784 5784 5784 5784 5784 5784 5784 5784 5784 5784 5784 5784 5784 5783 5783 5783 5782 5782 5782 5782 5781 5781 5781 5781 5781 5780 5780
5735 5736 5741 5744 5745 5744 5745 5746 5747 5748 5749 5751 5752 5754 5755 5756 5757 5758 5759 5760 5761 5761 5762 5763 5764 5765 5766 5768 5769 5770 5771 5772 5773 5774 5775 5776 5776 5777 5777 5778 5778 5778 5778 5778 5779 5779 5779 5780 5780 5780 5781 5781 5781 5781 5781 5781 5781 5781 5781 5781 5781 5781 5781 5781 5781 5781 5781 5781 5781 5781 5781 5781 5780 5780 5779 5779 5779 5778 5778 5778 5778 5778 5778 5777 5777
5732 5735 5739 5741 5742 5743 5744 5746 5747 5747 5748 5749 5750 5752 5753 5755 5755 5756 5757 5758 5759 5759 5760 5761 5762 5763 5765 5766 5767 5768 5769 5770 5771 5772 5773 5773 5774 5774 5775 5775 5775 5775 5775 5776 5776 5776 5776 5776 5777 5777 5777 5778 5778 5778 5779 5779 5779 5778 5778 5779 5779 5779 5778 5778 5778 5778 5778 5778 5777 5777 5778 5778 5778 5776 5776 5776 5776 5775 5775 5774 5774 5774 5774 5774 5774
5729 5734 5737 5738 5740 5741 5742 5743 5744 5745 5746 5747 5748 5749 5751 5752 5754 5755 5756 5756 5757 5757 5758 5759 5760 5762 5763 5764 5765 5766 5767 5768 5769 5770 5770 5771 5771 5772 5772 5772 5772 5772 5772 5772 5772 5773 5773 5773 5773 5774 5774 5775 5775 5775 5776 5776 5776 5776 5776 5776 5776 5776 5776 5776 5776 5775 5775 5775 5774 5774 5773 5773 5774 5773 5772 5772 5772 5771 5771 5771 5771 5770 5770 5769 5769
5729 5732 5734 5735 5736 5738 5739 5741 5741 5742 5743 5744 5745 5747 5749 5750 5751 5753 5754 5754 5754 5755 5756 5757 5758 5760 5761 5762 5763 5764 5765 5766 5766 5767 5768 5768 5768 5768 5769 5769 5769 5769 5769 5769 5769 5769 5770 5770 5771 5771 5772 5772 5772 5773 5773 5773 5773 5773 5774 5774 5774 5774 5773 5773 5773 5772 5772 5771 5771 5770 5770 5769 5769 5769 5768 5768 5768 5767 5767 5767 5767 5766 5765 5765 5765
5728 5731 5733 5732 5733 5734 5736 5737 5738 5739 5740 5741 5743 5745 5746 5747 5749 5750 5751 5752 5752 5753 5753 5754 5756 5757 5758 5760 5761 5762 5763 5763 5763 5764 5765 5765 5765 5765 5765 5765 5765 5765 5765 5766 5766 5766 5767 5768 5768 5769 5769 5769 5769 5769 5769 5770 5770 5771 5771 5771 5771 5771 5770 5770 5769 5769 5769 5768 5767 5766 5766 5765 5765 5764 5763 5763 5763 5763 5762 5762 5762 5761 5761 5760 5759
5725 5729 5731 5731 5731 5732 5733 5734 5736 5737 5737 5739 5740 5742 5744 5745 5746 5747 5748 5749 5750 5750 5751 5752 5753 5754 5756 5757 5759 5759 5760 5760 5761 5761 5761 5762 5762 5762 5762 5762 5762 5762 5762 5762 5762 5763 5764 5765 5765 5766 5766 5766 5766 5766 5767 5767 5767 5768 5768 5768 5767 5767 5767 5766 5766 5765 5765 5764 5763 5763 5762 5761 5760 5760 5759 5758 5758 5757 5757 5757 5756 5755 5755 5754 5753
5722 5725 5727 5728 5729 5730 5731 5733 5734 5734 5735 5737 5738 5739 5741 5742 5744 5745 5746 5746 5747 5748 5749 5749 5750 5752 5753 5754 5755 5756 5756 5757 5758 5758 5758 5759 5759 5759 5759 5759 5759 5759 5759 5759 5760 5760 5761 5762 5762 5763 5763 5763 5763 5763 5764 5764 5764 5765 5765 5764 5764 5764 5763 5763 5762 5762 5761 5761 5760 5759 5759 5758 5757 5756 5755 5754 5753 5752 5752 5751 5750 5749 5748 5747 5747
5719 5721 5723 5725 5726 5728 5729 5730 5731 5732 5733 5735 5736 5736 5738 5739 5741 5742 5742 5743 5744 5745 5746 5747 5748 5749 5750 5751 5752 5753 5753 5754 5754 5755 5755 5756 5756 5756 5756 5756 5756 5755 5756 5756 5757 5757 5758 5758 5759 5760 5760 5760 5760 5760 5761 5761 5761 5761 5761 5761 5761 5760 5759 5759 5758 5758 5758 5757 5756 5756 5755 5754 5753 5752 5751 5750 5749 5748 5746 5745 5744 5744 5742 5742 5742
5717 5719 5720 5722 5723 5725 5726 5727 5729 5730 5731 5732 5733 5734 5735 5736 5737 5738 5739 5740 5741 5742 5743 5744 5745 5746 5747 5748 5748 5749 5750 5750 5750 5751 5752 5752 5752 5752 5752 5753 5752 5752 5753 5753 5753 5754 5754 5755 5756 5757 5758 5758 5756 5756 5757 5757 5758 5758 5758 5757 5757 5756 5755 5755 5754 5754 5753 5752 5752 5751 5750 5749 5748 5747 5746 5745 5744 5742 5741 5740 5739 5738 5737 5736 5736
5715 5716 5718 5719 5720 5722 5723 5724 5725 5727 5729 5730 5731 5732 5732 5733 5733 5734 5735 5737 5738 5739 5740 5740 5741 5742 5743 5744 5744 5744 5745 5745 5746 5746 5747 5748 5749 5748 5749 5749 5749 5749 5750 5750 5750 5751 5751 5752 5753 5754 5755 5755 5753 5752 5753 5754 5755 5755 5754 5753 5753 5751 5750 5749 5749 5749 5748 5747 5747 5746 5745 5744 5742 5741 5740 5739 5738 5737 5736 5734 5733 5732 5731 5730 5730
5714 5715 5716 5717 5718 5719 5721 5722 5723 5724 5726 5727 5729 5729 5729 5730 5731 5731 5732 5733 5734 5735 5736 5737 5737 5738 5738 5739 5739 5739 5740 5740 5741 5742 5743 5744 5744 5744 5745 5745 5745 5746 5747 5747 5748 5748 5749 5749 5750 5750 5750 5751 5750 5749 5749 5749 5750 5751 5750 5749 5749 5748 5746 5744 5742 5743 5742 5741 5741 5740 5739 5738 5737 5735 5734 5733 5732 5731 5730 5729 5727 5726 5725 5723 5723
5712 5712 5713 5714 5715 5716 5718 5719 5720 5722 5723 5724 5725 5726 5727 5727 5728 5729 5729 5730 5731 5732 5732 5733 5733 5734 5734 5735 5735 5736 5736 5736 5737 5738 5739 5739 5739 5740 5741 5741 5742 5743 5744 5745 5745 5745 5746 5747 5747 5746 5746 5746 5746 5746 5745 5745 5745 5746 5746 5745 5744 5743 5742 5739 5737 5737 5737 5736 5735 5735 5734 5732 5731 5730 5729 5727 5726 5724 5723 5723 5721 5719 5717 5716 5715
5709 5709 5709 5710 5712 5713 5715 5716 5717 5719 5720 5721 5722 5723 5724 5725 5725 5726 5727 5728 5728 5729 5729 5730 5730 5731 5731 5732 5732 5733 5733 5733 5734 5734 5735 5735 5735 5736 5737 5738 5739 5740 5741 5742 5742 5742 5742 5743 5742 5742 5742 5742 5742 5742 5742 5741 5741 5740 5740 5740 5739 5738 5737 5735 5734 5732 5731 5730 5730 5729 5728 5727 5725 5724 5723 5721 5719 5717 5716 5716 5714 5711 5710 5709 5708
5706 5706 5707 5708 5709 5711 5712 5714 5715 5716 5717 5718 5719 5720 5721 5722 5722 5723 5724 5724 5725 5725 5726 5727 5728 5728 5728 5729 5729 5730 5730 5731 5731 5731 5732 5732 5732 5733 5734 5735 5736 5737 5737 5737 5738 5738 5737 5737 5737 5737 5737 5737 5737 5737 5736 5735 5735 5734 5733 5733 5732 5731 5731 5730 5729 5727 5725 5725 5723 5722 5721 5720 5719 5718 5717 5715 5713 5711 5709 5708 5707 5704 5702 5701 5700
5704 5704 5705 5706 5707 5708 5710 5711 5712 5713 5714 5715 5716 5717 5718 5718 5719 5720 5720 5721 5721 5722 5723 5724 5725 5725 5726 5726 5726 5727 5728 5728 5728 5728 5729 5729 5730 5731 5731 5732 5733 5733 5732 5733 5733 5732 5732 5732 5733 5732 5731 5731 5730 5730 5729 5729 5728 5727 5726 5725 5725 5724 5724 5723 5722 5721 5720 5719 5717 5715 5714 5713 5712 5711 5710 5708 5706 5704 5702 5700 5698 5697 5695 5693 5692
5702 5703 5704 5705 5706 5707 5708 5709 5709 5710 5711 5712 5713 5714 5715 5716 5716 5717 5717 5718 5719 5719 5720 5721 5722 5722 5723 5723 5724 5724 5725 5725 5725 5726 5726 5727 5727 5728 5728 5729 5728 5728 5728 5728 5727 5727 5726 5727 5728 5727 5725 5724 5724 5723 5723 5722 5721 5720 5719 5719 5718 5717 5717 5716 5715 5713 5712 5711 5709 5708 5706 5705 5704 5703 5702 5701 5699 5696 5693 5692 5690 5689 5687 5685 5683
5700 5700 5701 5702 5703 5704 5705 5706 5707 5708 5708 5709 5710 5711 5712 5713 5713 5714 5714 5715 5716 5716 5717 5718 5719 5719 5720 5721 5721 5722 5722 5723 5723 5723 5723 5723 5724 5724 5725 5725 5725 5723 5723 5723 5723 5722 5722 5723 5723 5722 5720 5719 5718 5718 5717 5716 5715 5714 5712 5711 5711 5709 5709 5708 5707 5706 5704 5702 5701 5699 5697 5696 5695 5694 5693 5692 5691 5689 5686 5684 5682 5680 5678 5676 5674
5697 5698 5698 5699 5700 5701 5702 5703 5704 5704 5705 5706 5707 5707 5708 5709 5709 5710 5711 5712 5712 5713 5714 5714 5715 5716 5716 5717 5717 5718 5718 5719 5719 5719 5719 5719 5720 5720 5720 5720 5720 5719 5719 5719 5718 5717 5717 5717 5717 5716 5714 5713 5712 5711 5710 5709 5708 5707 5705 5704 5703 5702 5701 5700 5699 5697 5696 5694 5692 5690 5689 5688 5685 5684 5683 5681 5682 5682 5678 5674 5673 5671 5668 5667 5665
5693 5694 5695 5696 5697 5698 5699 5699 5700 5701 5702 5702 5703 5704 5704 5705 5706 5707 5708 5708 5709 5709 5710 5711 5711 5712 5712 5713 5713 5713 5714 5714 5714 5714 5714 5714 5715 5715 5715 5714 5714 5713 5713 5713 5713 5712 5711 5711 5710 5710 5708 5707 5706 5704 5703 5702 5701 5700 5698 5696 5695 5693 5692 5691 5690 5688 5687 5685 5683 5681 5680 5678 5676 5674 5672 5670 5672 5674 5669 5664 5663 5662 5659 5658 5656
5690 5691 5692 5693 5694 5694 5695 5696 5697 5698 5698 5699 5700 5700 5701 5701 5702 5703 5704 5704 5705 5705 5706 5706 5707 5707 5708 5708 5709 5709 5709 5709 5710 5710 5709 5710 5710 5710 5710 5709 5708 5707 5707 5707 5706 5706 5705 5704 5703 5703 5702 5701 5699 5698 5696 5694 5693 5691 5689 5688 5686 5685 5684 5682 5681 5679 5677 5675 5673 5670 5669 5667 5666 5664 5661 5659 5659 5660 5658 5655 5654 5652 5650 5649 5647
5686 5687 5688 5689 5690 5691 5692 5692 5693 5694 5695 5695 5696 5696 5697 5698 5698 5699 5699 5700 5701 5701 5701 5702 5702 5703 5703 5704 5704 5704 5705 5705 5705 5705 5704 5704 5704 5704 5704 5703 5702 5701 5701 5701 5700 5698 5697 5696 5695 5695 5694 5693 5691 5690 5688 5686 5684 5682 5681 5679 5677 5676 5675 5673 5671 5669 5668 5665 5662 5660 5658 5656 5655 5655 5653 5649 5648 5647 5647 5646 5644 5642 5641 5640 5638
5682 5683 5684 5685 5686 5687 5688 5688 5689 5690 5690 5691 5692 5693 5693 5694 5694 5694 5695 5695 5696 5697 5697 5698 5698 5698 5698 5699 5699 5699 5700 5701 5700 5699 5699 5699 5699 5698 5697 5697 5696 5695 5694 5694 5693 5691 5690 5689 5687 5686 5686 5684 5683 5681 5679 5677 5675 5674 5672 5670 5668 5667 5666 5664 5662 5660 5658 5656 5652 5649 5647 5646 5646 5646 5644 5641 5638 5637 5637 5636 5634 5633 5632 5631 5629
5678 5679 5680 5681 5682 5683 5684 5684 5685 5686 5687 5687 5688 5688 5689 5689 5690 5690 5690 5691 5691 5692 5692 5693 5693 5693 5693 5694 5694 5694 5695 5695 5694 5693 5693 5693 5693 5692 5692 5691 5690 5689 5688 5687 5686 5685 5683 5682 5680 5679 5677 5676 5674 5672 5671 5669 5667 5665 5663 5661 5659 5657 5656 5655 5653 5650 5647 5645 5642 5639 5637 5636 5636 5635 5634 5631 5629 5628 5628 5626 5624 5623 5622 5621 5621
5674 5675 5676 5677 5678 5679 5680 5680 5681 5682 5683 5683 5684 5684 5685 5685 5685 5686 5686 5686 5687 5687 5687 5687 5687 5687 5688 5688 5688 5688 5688 5688 5688 5687 5687 5687 5686 5686 5685 5685 5684 5683 5682 5681 5679 5678 5677 5675 5673 5672 5670 5668 5667 5665 5662 5660 5658 5656 5654 5651 5649 5647 5645 5645 5645 5642 5637 5634 5632 5629 5627 5626 5625 5624 5623 5621 5619 5619 5619 5616 5615 5614 5613 5613 5612
5670 5671 5672 5673 5674 5674 5675 5676 5676 5677 5678 5678 5679 5679 5680 5680 5681 5681 5681 5681 5681 5682 5682 5681 5681 5682 5682 5682 5682 5682 5682 5682 5682 5681 5681 5680 5679 5679 5678 5677 5676 5675 5674 5673 5672 5670 5669 5667 5666 5664 5662 5660 5658 5656 5654 5652 5649 5647 5644 5642 5640 5637 5635 5635 5635 5632 5628 5625 5623 5620 5617 5616 5615 5615 5613 5611 5610 5610 5609 5608 5607 5606 5606 5605 5605
5666 5667 5667 5668 5668 5669 5670 5671 5671 5672 5673 5673 5674 5674 5674 5675 5675 5675 5676 5676 5676 5676 5676 5676 5676 5676 5676 5676 5676 5676 5676 5676 5675 5675 5674 5673 5673 5672 5671 5670 5669 5667 5666 5665 5664 5662 5661 5659 5657 5655 5653 5651 5649 5647 5645 5643 5640 5637 5635 5633 5630 5627 5625 5626 5625 5622 5618 5615 5614 5612 5609 5607 5606 5606 5605 5603 5601 5601 5601 5600 5600 5599 5599 5599 5598
5661 5662 5662 5663 5663 5664 5665 5665 5666 5667 5667 5668 5668 5669 5669 5670 5670 5670 5670 5670 5670 5670 5670 5670 5670 5670 5670 5670 5670 5670 5670 5669 5669 5668 5668 5667 5666 5665 5664 5663 5661 5660 5659 5657 5656 5654 5652 5650 5648 5646 5644 5642 5640 5638 5635 5633 5630 5628 5625 5623 5620 5617 5616 5616 5615 5612 5608 5606 5605 5603 5601 5600 5598 5597 5596 5595 5594 5594 5593 5593 5592 5592 5592 5593 5592
5656 5657 5657 5658 5658 5659 5660 5660 5661 5661 5662 5663 5663 5663 5664 5664 5664 5665 5665 5665 5665 5665 5665 5664 5664 5664 5664 5664 5664 5663 5663 5663 5662 5661 5660 5660 5659 5658 5656 5655 5653 5652 5651 5649 5647 5645 5643 5641 5639 5636 5634 5632 5631 5629 5625 5623 5621 5619 5616 5614 5611 5608 5607 5607 5605 5603 5600 5598 5597 5595 5593 5592 5590 5589 5587 5586 5586 5585 5585 5585 5584 5584 5585 5586 5586
5651 5652 5652 5653 5653 5654 5655 5656 5656 5657 5657 5658 5658 5658 5658 5658 5658 5658 5658 5658 5658 5658 5658 5658 5658 5658 5657 5657 5657 5656 5656 5655 5655 5654 5653 5652 5650 5649 5648 5646 5645 5643 5642 5640 5638 5636 5634 5632 5630 5628 5626 5624 5622 5620 5617 5615 5612 5610 5608 5606 5603 5601 5600 5599 5597 5595 5593 5591 5589 5587 5586 5583 5581 5580 5579 5578 5577 5577 5577 5577 5577 5577 5579 5579 5579
5646 5646 5647 5648 5648 5649 5650 5650 5651 5651 5652 5652 5653 5653 5653 5652 5652 5652 5652 5652 5652 5652 5651 5651 5651 5651 5650 5650 5649 5649 5648 5648 5647 5646 5645 5643 5642 5641 5640 5638 5636 5635 5633 5632 5630 5628 5626 5625 5622 5620 5618 5616 5615 5613 5610 5608 5606 5603 5601 5599 5597 5594 5593 5592 5589 5587 5586 5584 5581 5579 5577 5575 5573 5571 5570 5569 5569 5569 5569 5570 5571 5572 5573 5573 5573
5640 5641 5641 5642 5643 5643 5644 5644 5645 5645 5646 5646 5646 5647 5647 5647 5646 5647 5647 5647 5647 5647 5646 5646 5645 5645 5644 5644 5643 5642 5641 5640 5639 5638 5637 5636 5634 5633 5632 5631 5629 5628 5626 5625 5623 5621 5619 5618 5616 5614 5612 5610 5608 5606 5604 5602 5599 5597 5595 5592 5590 5588 5586 5584 5581 5579 5577 5575 5573 5571 5569 5567 5565 5563 5563 5562 5562 5562 5563 5564 5565 5566 5567 5568 5569
5635 5636 5636 5637 5637 5638 5638 5638 5639 5639 5640 5640 5640 5641 5640 5640 5640 5640 5640 5640 5641 5641 5641 5640 5639 5639 5638 5637 5637 5636 5635 5634 5633 5632 5630 5629 5628 5626 5625 5624 5623 5622 5620 5618 5617 5615 5613 5611 5610 5608 5606 5604 5602 5600 5598 5595 5593 5591 5588 5585 5583 5580 5578 5576 5573 5571 5568 5567 5565 5563 5561 5560 5558 5557 5557 5557 5557 5558 5559 5560 5561 5562 5563 5564 5565
5630 5630 5631 5631 5632 5633 5633 5633 5633 5634 5634 5634 5635 5635 5634 5634 5635 5634 5634 5634 5634 5634 5634 5633 5633 5632 5631 5630 5630 5629 5628 5627 5626 5625 5624 5623 5622 5620 5619 5618 5617 5615 5614 5612 5611 5609 5608 5606 5604 5602 5600 5598 5596 5593 5591 5589 5587 5584 5581 5579 5576 5574 5571 5568 5565 5563 5560 5558 5557 5556 5555 5555 5554 5554 5554 5555 5555 5556 5557 5558 5559 5559 5560 5561 5562
5625 5625 5626 5627 5627 5627 5628 5628 5628 5628 5628 5629 5629 5629 5629 5629 5629 5628 5628 5628 5628 5627 5627 5627 5626 5626 5625 5624 5624 5623 5622 5622 5620 5619 5618 5617 5616 5615 5614 5612 5611 5610 5608 5607 5605 5604 5603 5601 5599 5597 5595 5592 5590 5587 5585 5583 5580 5577 5575 5572 5570 5567 5565 5562 5559 5556 5554 5553 5552 5551 5552 5551 5551 5551 5552 5552 5552 5553 5555 5556 5556 5557 5557 5558 5558
5619 5620 5620 5621 5621 5622 5622 5622 5622 5622 5622 5623 5623 5623 5623 5623 5623 5623 5622 5622 5622 5622 5621 5621 5620 5620 5620 5619 5618 5618 5617 5616 5615 5614 5613 5612 5611 5610 5609 5607 5606 5604 5603 5601 5600 5599 5597 5595 5593 5591 5589 5586 5584 5581 5579 5576 5574 5571 5569 5567 5564 5562 5559 5556 5554 5552 5551 5550 5550 5549 5549 5549 5549 5549 5550 5550 5550 5551 5552 5553 5554 5554 5555 5555 5556
5613 5614 5614 5615 5615 5615 5615 5615 5616 5616 5616 5616 5616 5617 5617 5617 5617 5617 5617 5617 5617 5617 5616 5616 5615 5615 5614 5614 5613 5612 5612 5611 5610 5609 5608 5607 5606 5605 5604 5603 5601 5599 5598 5596 5595 5593 5592 5590 5588 5585 5583 5580 5578 5575 5573 5570 5568 5566 5564 5562 5560 5557 5555 5553 5551 5550 5549 5549 5548 5548 5548 5548 5548 5548 5548 5549 5549 5549 5550 5550 5551 5551 5551 5552 5552
5608 5608 5608 5609 5609 5610 5610 5610 5610 5610 5611 5611 5611 5611 5611 5612 5612 5612 5611 5611 5611 5611 5611 5611 5610 5610 5609 5609 5608 5607 5607 5606 5605 5604 5603 5602 5602 5601 5599 5598 5597 5595 5593 5592 5590 5588 5586 5584 5582 5579 5577 5574 5572 5569 5567 5566 5564 5562 5560 5558 5556 5554 5553 5551 5550 5549 5548 5548 5547 5547 5547 5547 5547 5547 5547 5547 5547 5547 5547 5547 5548 5548 5549 5549 5550
5602 5603 5603 5603 5604 5604 5604 5605 5605 5605 5605 5605 5606 5606 5606 5606 5606 5606 5606 5606 5606 5606 5606 5605 5605 5604 5604 5604 5603 5603 5602 5601 5601 5600 5599 5598 5597 5596 5595 5594 5592 5591 5589 5587 5585 5583 5581 5578 5576 5573 5571 5568 5566 5565 5563 5562 5560 5558 5556 5555 5553 5552 5551 5550 5549 5548 5547 5546 5546 5545 5545 5545 5545 5545 5544 5544 5544 5544 5545 5545 5545 5546 5546 5547 5547
5596 5597 5597 5598 5598 5599 5599 5599 5599 5600 5600 5600 5600 5601 5601 5601 5601 5601 5601 5601 5601 5601 5600 5600 5600 5600 5599 5599 5599 5598 5598 5597 5597 5596 5595 5594 5594 5593 5591 5590 5588 5586 5585 5582 5580 5577 5575 5573 5570 5568 5566 5564 5562 5561 5560 5558 5556 5555 5553 5552 5551 5550 5549 5548 5547 5546 5545 5545 5544 5544 5543 5543 5543 5543 5542 5542 5542 5542 5542 5543 5543 5543 5544 5544 5544
5591 5591 5592 5592 5593 5593 5593 5594 5594 5594 5594 5595 5595 5596 5596 5596 5596 5595 5596 5596 5596 5596 5596 5595 5595 5595 5595 5595 5595 5594 5594 5593 5593 5592 5591 5590 5590 5588 5587 5586 5584 5582 5580 5577 5575 5572 5570 5568 5566 5563 5561 5560 5558 5557 5556 5555 5553 5551 5550 5550 5549 5548 5548 5547 5546 5545 5544 5543 5542 5542 5542 5541 5541 5541 5540 5540 5539 5539 5539 5540 5540 5541 5541 5541 5541
5585 5586 5586 5587 5587 5588 5588 5589 5589 5589 5589 5590 5590 5591 5591 5591 5591 5591 5591 5591 5591 5591 5591 5592 5592 5592 5592 5591 5591 5591 5590 5590 5589 5588 5587 5586 5585 5584 5583 5581 5580 5578 5575 5572 5570 5568 5566 5564 5561 5559 5558 5556 5555 5554 5553 5551 5550 5549 5548 5548 5547 5547 5546 5545 5545 5544 5543 5542 5541 5541 5541 5540 5540 5539 5539 5538 5538 5538 5537 5537 5538 5538 5538 5538 5538
5580 5581 5581 5582 5582 5583 5583 5584 5584 5584 5584 5585 5585 5586 5586 5586 5586 5587 5587 5587 5587 5588 5588 5588 5588 5588 5588 5588 5588 5587 5587 5586 5585 5584 5584 5583 5581 5580 5579 5577 5575 5573 5571 5568 5566 5564 5562 5560 5558 5556 5555 5554 5553 5551 5550 5549 5547 5547 5546 5546 5546 5545 5544 5544 5543 5542 5542 5541 5541 5540 5540 5539 5538 5538 5537 5537 5537 5536 5536 5536 5536 5536 5536 5535 5536
5575 5576 5576 5577 5577 5578 5578 5579 5579 5579 5580 5580 5581 5581 5581 5582 5582 5583 5583 5583 5584 5584 5584 5585 5585 5585 5585 5584 5584 5584 5583 5582 5582 5581 5580 5579 5578 5576 5575 5573 5571 5569 5566 5564 5562 5561 5559 5557 5555 5553 5552 5551 5550 5549 5548 5546 5545 5545 5544 5544 5544 5543 5542 5542 5541 5541 5540 5540 5539 5539 5538 5537 5537 5536 5536 5535 5535 5535 5534 5534 5534 5534 5534 5534 5534
5570 5571 5571 5572 5572 5573 5573 5574 5574 5575 5575 5576 5576 5577 5577 5578 5578 5579 5579 5580 5580 5581 5581 5581 5581 5581 5581 5581 5581 5580 5580 5579 5578 5577 5576 5575 5574 5573 5571 5569 5567 5565 5563 5561 5559 5557 5556 5554 5552 5551 5550 5549 5548 5547 5546 5544 5543 5543 5542 5542 5542 5541 5541 5540 5539 5539 5538 5538 5537 5537 5536 5536 5535 5535 5534 5533 5533 5533 5532 5532 5532 5532 5532 5532 5532
5565 5566 5567 5567 5568 5568 5569 5569 5570 5570 5571 5571 5572 5572 5573 5574 5575 5575 5576 5577 5577 5577 5578 5578 5578 5578 5578 5578 5577 5577 5576 5576 5575 5574 5573 5572 5571 5569 5568 5566 5564 5561 5560 5558 5556 5555 5553 5551 5550 5549 5548 5547 5546 5545 5544 5542 5541 5541 5540 5540 5540 5539 5539 5538 5537 5537 5536 5536 5535 5535 5534 5534 5533 5533 5532 5532 5532 5531 5531 5530 5530 5530 5529 5529 5529
5561 5561 5562 5563 5563 5564 5564 5565 5565 5566 5567 5567 5568 5569 5570 5570 5571 5572 5572 5573 5574 5574 5575 5575 5575 5575 5575 5575 5574 5574 5573 5573 5572 5571 5570 5569 5567 5566 5564 5562 5560 5559 5557 5555 5554 5552 5551 5549 5548 5547 5546 5545 5544 5543 5542 5541 5540 5539 5538 5538 5537 5537 5536 5536 5535 5534 5534 5533 5533 5532 5532 5532 5531 5531 5531 5530 5530 5530 5529 5529 5528 5528 5527 5527 5527